Hinckley, MN

9:36 PM CST on December 14, 2019 (GMT -0600)
Hinckley

Weather History for K04W - October, 2019

Change the Weather History Date:

Thursday, October 10, 2019

  Actual Average (KJMR) Record (KJMR)
Temperature  
Mean Temperature 56 °F -  
Max Temperature 60 °F 57 °F 81 °F (1938)
Min Temperature 53 °F 33 °F 6 °F (1987)
Degree Days  
Heating Degree Days 9    
Growing Degree Days 6 (Base 50)    
Moisture  
Dew Point 52 °F    
Average Humidity 87    
Maximum Humidity 100    
Minimum Humidity 67    
Precipitation  
Precipitation 0.19 in - - ()
Sea Level Pressure  
Sea Level Pressure 29.86 in    
Wind  
Wind Speed 6 mph (ESE)    
Max Wind Speed 10 mph    
Max Gust Speed -    
Visibility 9 miles    
Events Rain    
Averages and records for this station are not official NWS values.
T = Trace of Precipitation, MM = Missing Value Source: NWS Daily Summary

Daily Weather History Graph

Daily Weather History Graph

Search for Another Location

Airport or City:

Astronomy

Oct. 10, 2019 Rise Set
Actual Time 7:21 AM CDT 6:34 PM CDT
Civil Twilight 6:51 AM CDT 7:04 PM CDT
Nautical Twilight 6:16 AM CDT 7:39 PM CDT
Astronomical Twilight 5:42 AM CDT 8:14 PM CDT
Moon 5:49 PM CDT (10/10) 3:50 AM CDT (10/10)
Length of Visible Light 12h 13m
Length of Day
11h 13m
Waxing Gibbous, 91% of the Moon is Illuminated
Oct 10
Waxing Gibbous
Oct 13
Full
Oct 21
Last Quarter
Oct 27
New
Nov 4
First Quarter

Hourly Weather History & Observations

Time (CDT) Temp. Dew Point Humidity Pressure Visibility Wind Dir Wind Speed Gust Speed Precip Events Conditions
12:15 AM 55.4 °F 46.4 °F 72% 29.98 in 10.0 mi SE 4.6 mph - N/A   Clear
12:19 AM 55.4 °F 46.4 °F 72% 29.98 in 10.0 mi SE 3.5 mph - N/A   Clear
12:37 AM 55.4 °F 46.4 °F 72% 29.98 in 10.0 mi SE 4.6 mph - N/A   Clear
12:56 AM 55.4 °F 46.4 °F 72% 29.98 in 10.0 mi SE 3.5 mph - N/A   Clear
1:15 AM 55.4 °F 46.4 °F 72% 29.98 in 10.0 mi ESE 3.5 mph - N/A   Clear
1:16 AM 55.4 °F 46.4 °F 72% 29.98 in 10.0 mi ESE 3.5 mph - N/A   Clear
1:35 AM 55.4 °F 46.4 °F 72% 29.98 in 10.0 mi ESE 3.5 mph - N/A   Mostly Cloudy
1:59 AM 55.4 °F 46.4 °F 72% 29.99 in 10.0 mi ESE 3.5 mph - N/A   Scattered Clouds
2:16 AM 55.4 °F 46.4 °F 72% 29.98 in 10.0 mi SE 3.5 mph - N/A   Clear
2:36 AM 55.4 °F 46.4 °F 72% 29.99 in 10.0 mi SE 4.6 mph - N/A   Mostly Cloudy
2:55 AM 55.4 °F 46.4 °F 72% 29.99 in 10.0 mi South 8.1 mph - N/A   Scattered Clouds
2:56 AM 55.4 °F 46.4 °F 72% 29.99 in 10.0 mi South 6.9 mph - N/A   Scattered Clouds
3:15 AM 55.4 °F 46.4 °F 72% 29.98 in 10.0 mi SSE 8.1 mph - N/A   Mostly Cloudy
3:19 AM 57.2 °F 46.4 °F 67% 29.98 in 10.0 mi South 6.9 mph - N/A   Mostly Cloudy
3:38 AM 55.4 °F 46.4 °F 72% 29.97 in 10.0 mi SSE 4.6 mph - N/A   Mostly Cloudy
3:55 AM 55.4 °F 46.4 °F 72% 29.97 in 10.0 mi South 5.8 mph - N/A   Mostly Cloudy
4:15 AM 55.4 °F 46.4 °F 72% 29.97 in 10.0 mi South 9.2 mph - N/A   Overcast
4:35 AM 55.4 °F 48.2 °F 77% 29.97 in 10.0 mi SSE 6.9 mph - N/A   Overcast
4:36 AM 55.4 °F 48.2 °F 77% 29.97 in 10.0 mi SSE 6.9 mph - N/A   Overcast
4:58 AM 55.4 °F 48.2 °F 77% 29.96 in 10.0 mi SSE 8.1 mph - N/A   Overcast
5:16 AM 55.4 °F 48.2 °F 77% 29.95 in 10.0 mi SE 4.6 mph - N/A   Overcast
5:35 AM 55.4 °F 48.2 °F 77% 29.94 in 10.0 mi SSE 3.5 mph - N/A   Overcast
5:56 AM 53.6 °F 48.2 °F 82% 29.94 in 10.0 mi Calm Calm - N/A   Mostly Cloudy
6:15 AM 53.6 °F 48.2 °F 82% 29.94 in 10.0 mi ESE 3.5 mph - N/A   Overcast
6:56 AM 53.6 °F 48.2 °F 82% 29.93 in 10.0 mi ESE 3.5 mph - N/A   Overcast
7:15 AM 53.6 °F 48.2 °F 82% 29.93 in 10.0 mi Calm Calm - N/A   Overcast
7:16 AM 53.6 °F 48.2 °F 82% 29.93 in 10.0 mi Calm Calm - N/A   Overcast
7:35 AM 53.6 °F 48.2 °F 82% 29.92 in 10.0 mi ENE 3.5 mph - N/A   Overcast
7:36 AM 53.6 °F 48.2 °F 82% 29.92 in 10.0 mi ENE 3.5 mph - N/A   Overcast
7:58 AM 53.6 °F 48.2 °F 82% 29.91 in 10.0 mi East 5.8 mph - N/A   Overcast
8:16 AM 53.6 °F 48.2 °F 82% 29.91 in 10.0 mi East 5.8 mph - N/A   Overcast
8:36 AM 53.6 °F 48.2 °F 82% 29.92 in 10.0 mi East 5.8 mph - N/A   Overcast
8:55 AM 53.6 °F 48.2 °F 82% 29.93 in 10.0 mi East 5.8 mph - N/A   Overcast
8:56 AM 53.6 °F 48.2 °F 82% 29.93 in 10.0 mi East 5.8 mph - N/A   Overcast
9:15 AM 53.6 °F 48.2 °F 82% 29.93 in 10.0 mi ESE 6.9 mph - N/A   Overcast
9:37 AM 55.4 °F 48.2 °F 77% 29.93 in 10.0 mi ESE 6.9 mph - N/A   Overcast
9:56 AM 55.4 °F 48.2 °F 77% 29.93 in 10.0 mi East 5.8 mph - N/A   Overcast
10:15 AM 55.4 °F 48.2 °F 77% 29.93 in 10.0 mi ESE 6.9 mph - N/A   Overcast
10:16 AM 55.4 °F 48.2 °F 77% 29.93 in 10.0 mi East 5.8 mph - N/A   Overcast
10:35 AM 55.4 °F 50.0 °F 82% 29.92 in 10.0 mi East 5.8 mph - N/A   Overcast
10:36 AM 55.4 °F 50.0 °F 82% 29.92 in 10.0 mi East 6.9 mph - N/A   Overcast
10:58 AM 55.4 °F 50.0 °F 82% 29.93 in 10.0 mi ESE 5.8 mph - N/A   Overcast
11:16 AM 55.4 °F 50.0 °F 82% 29.92 in 10.0 mi ESE 5.8 mph - N/A   Overcast
11:36 AM 55.4 °F 50.0 °F 82% 29.91 in 10.0 mi ESE 5.8 mph - N/A   Overcast
11:55 AM 55.4 °F 51.8 °F 88% 29.90 in 7.0 mi ESE 9.2 mph - N/A   Overcast
12:15 PM 55.4 °F 51.8 °F 88% 29.89 in 10.0 mi ESE 6.9 mph - N/A   Overcast
12:19 PM 55.4 °F 51.8 °F 88% 29.89 in 10.0 mi ESE 8.1 mph - N/A   Overcast
12:37 PM 57.2 °F 51.8 °F 82% 29.88 in 10.0 mi ESE 9.2 mph - N/A   Overcast
12:55 PM 57.2 °F 51.8 °F 82% 29.86 in 10.0 mi ESE 10.4 mph - N/A   Overcast
1:15 PM 57.2 °F 51.8 °F 82% 29.85 in 10.0 mi East 8.1 mph - N/A   Overcast
1:16 PM 57.2 °F 51.8 °F 82% 29.85 in 10.0 mi East 8.1 mph - N/A   Overcast
1:35 PM 57.2 °F 51.8 °F 82% 29.84 in 10.0 mi East 6.9 mph - N/A   Overcast
1:36 PM 57.2 °F 51.8 °F 82% 29.84 in 10.0 mi ESE 6.9 mph - N/A   Overcast
2:17 PM 57.2 °F 53.6 °F 88% 29.83 in 10.0 mi ESE 6.9 mph - N/A   Overcast
2:36 PM 57.2 °F 53.6 °F 88% 29.83 in 10.0 mi ESE 6.9 mph - N/A   Overcast
2:55 PM 57.2 °F 53.6 °F 88% 29.82 in 10.0 mi East 5.8 mph - N/A   Overcast
2:56 PM 57.2 °F 53.6 °F 88% 29.82 in 10.0 mi East 6.9 mph - N/A   Overcast
3:15 PM 55.4 °F 53.6 °F 94% 29.81 in 10.0 mi East 5.8 mph - N/A Rain Light Rain
3:19 PM 55.4 °F 53.6 °F 94% 29.81 in 10.0 mi East 5.8 mph - N/A Rain Light Rain
3:37 PM 55.4 °F 53.6 °F 94% 29.81 in 10.0 mi East 6.9 mph - N/A   Drizzle
3:55 PM 55.4 °F 55.4 °F 100% 29.80 in 7.0 mi East 8.1 mph - N/A   Drizzle
4:15 PM 55.4 °F 55.4 °F 100% 29.79 in 10.0 mi East 6.9 mph - N/A   Light Drizzle
4:16 PM 55.4 °F 55.4 °F 100% 29.79 in 10.0 mi East 8.1 mph - N/A   Light Drizzle
4:35 PM 55.4 °F 55.4 °F 100% 29.79 in 7.0 mi East 8.1 mph - N/A   Overcast
4:36 PM 55.4 °F 55.4 °F 100% 29.79 in 5.0 mi East 9.2 mph - N/A   Overcast
4:58 PM 55.4 °F 55.4 °F 100% 29.78 in 5.0 mi East 8.1 mph - N/A Rain Light Rain
5:17 PM 55.4 °F 55.4 °F 100% 29.78 in 3.0 mi ESE 8.1 mph - 0.01 in Rain Rain
5:36 PM 55.4 °F 55.4 °F 100% 29.78 in 2.5 mi SE 8.1 mph - 0.08 in Rain Rain
5:55 PM 55.4 °F 55.4 °F 100% 29.77 in 3.0 mi ESE 5.8 mph - 0.12 in Rain Heavy Rain
6:15 PM 55.4 °F 55.4 °F 100% 29.76 in 3.0 mi ESE 8.1 mph - 0.01 in   Light Drizzle
6:19 PM 55.4 °F 55.4 °F 100% 29.76 in 4.0 mi SE 6.9 mph - 0.01 in   Light Drizzle
6:38 PM 55.4 °F 55.4 °F 100% 29.76 in 7.0 mi ESE 8.1 mph - 0.01 in   Overcast
6:55 PM 55.4 °F 55.4 °F 100% 29.76 in 10.0 mi ESE 5.8 mph - 0.01 in   Overcast
7:15 PM 57.2 °F 57.2 °F 100% 29.75 in 10.0 mi ESE 6.9 mph - N/A   Overcast
7:16 PM 57.2 °F 57.2 °F 100% 29.75 in 10.0 mi ESE 6.9 mph - N/A   Overcast
7:35 PM 57.2 °F 57.2 °F 100% 29.74 in 10.0 mi ESE 6.9 mph - N/A   Overcast
7:36 PM 57.2 °F 57.2 °F 100% 29.75 in 10.0 mi ESE 6.9 mph - N/A   Overcast
7:59 PM 57.2 °F 57.2 °F 100% 29.74 in 7.0 mi ESE 9.2 mph - N/A Rain Rain
8:16 PM 59.0 °F 57.2 °F 94% 29.73 in 5.0 mi East 6.9 mph - 0.01 in   Drizzle
8:36 PM 59.0 °F 57.2 °F 94% 29.73 in 7.0 mi ESE 6.9 mph - 0.02 in   Overcast
8:55 PM 59.0 °F 57.2 °F 94% 29.72 in 4.0 mi ESE 8.1 mph - 0.03 in Rain Rain
8:56 PM 59.0 °F 57.2 °F 94% 29.72 in 4.0 mi ESE 6.9 mph - 0.03 in Rain Rain
9:15 PM 59.0 °F 59.0 °F 100% 29.72 in 7.0 mi ESE 6.9 mph - 0.01 in   Overcast
9:20 PM 59.0 °F 59.0 °F 100% 29.71 in 7.0 mi ESE 8.1 mph - 0.01 in   Overcast
9:37 PM 59.0 °F 59.0 °F 100% 29.71 in 7.0 mi ESE 8.1 mph - 0.01 in   Overcast
9:56 PM 59.0 °F 59.0 °F 100% 29.70 in 4.0 mi ESE 9.2 mph - 0.01 in Rain Rain
10:15 PM 59.0 °F 59.0 °F 100% 29.69 in 4.0 mi SE 6.9 mph - N/A   Overcast
10:16 PM 59.0 °F 59.0 °F 100% 29.69 in 4.0 mi SE 8.1 mph - N/A   Overcast
10:35 PM 59.0 °F 59.0 °F 100% 29.69 in 7.0 mi SE 5.8 mph - N/A   Overcast
10:36 PM 59.0 °F 59.0 °F 100% 29.69 in 7.0 mi SE 6.9 mph - N/A   Overcast
11:17 PM 59.0 °F 59.0 °F 100% 29.66 in 5.0 mi SE 10.4 mph - N/A   Overcast
11:36 PM 59.0 °F 59.0 °F 100% 29.65 in 10.0 mi ESE 8.1 mph - 0.02 in Rain Light Rain
11:55 PM 60.8 °F 59.0 °F 94% 29.65 in 7.0 mi SE 8.1 mph - 0.02 in   Overcast